Home > Weather > Garden Grove > Past weeks

Flag for USA Past Weather in Garden Grove, California, USA — Yesterday and Last 2 Weeks

Now
61 °F

Clear.


Feels Like: 61 °F
Forecast: 60 / 72 °F
Wind: No wind

Location: Fullerton Municipal Airport

Current Time: May 30, 2016 at 1:49:49 AM

Latest Report: May 30, 2016 at 12:53 AM


Visibility: 10 mi

Pressure: 29.99 "Hg

Humidity: 78%

Dew Point: 54 °F

Location of Garden GroveLocation

Past Weather in Garden Grove — Graph

°F

Garden Grove Temperature Yesterday

Maximum temperature yesterday: 74 °F (at 2:53 PM)
Minimum temperature yesterday: 62 °F (at 1:53 AM)
Average temperature yesterday: 66 °F

High & Low Weather Summary for the Past Weeks

 TemperatureHumidityPressure
High77 °F (May 18, 12:53 PM)87% (May 17, 11:53 PM)30.08 "Hg (May 17, 11:53 PM)
Low54 °F (May 21, 5:53 AM)33% (May 22, 4:53 PM)29.81 "Hg (May 19, 5:53 PM)
Average65 °F64%29.94 "Hg
* Reported May 14 11:53 PM — May 29 11:53 PM, Garden Grove, Weather by CustomWeather, © 2016

Note: Actual official high and low records may vary slightly from our data, if they occured in-between our weather recording intervals... More about our weather records

Advertising

Garden Grove Weather History for the Previous 24 Hours

Scroll right to see more
 ConditionsComfort  
Time TempWeatherWind HumidityBarometerVisibility
11:53 PM
Sun, May 29
62 °FClear.3 mph75%29.99 "Hg10 mi
10:53 PM63 °FClear.No wind70%30.00 "Hg10 mi
9:53 PM63 °FClear.3 mph70%30.00 "Hg10 mi
8:53 PM64 °FSunny.3 mph68%29.98 "Hg10 mi
7:53 PM66 °FSunny.7 mph63%29.97 "Hg10 mi
6:53 PM69 °FPassing clouds.5 mph57%29.95 "Hg10 mi
5:53 PM72 °FSunny.6 mph49%29.94 "Hg10 mi
4:53 PM74 °FPassing clouds.8 mph46%29.94 "Hg10 mi
3:53 PM73 °FPassing clouds.7 mph48%29.95 "Hg10 mi
2:53 PM74 °FPassing clouds.7 mph48%29.96 "Hg10 mi
1:53 PM71 °FOvercast.3 mph53%29.98 "Hg10 mi
12:53 PM70 °FOvercast.N/A53%29.99 "Hg10 mi
11:53 AM68 °FOvercast.3 mph59%30.00 "Hg10 mi
10:53 AM69 °FOvercast.6 mph55%30.01 "Hg10 mi
9:53 AM67 °FOvercast.No wind59%30.01 "Hg10 mi
8:53 AM65 °FOvercast.No wind66%30.01 "Hg10 mi
7:53 AM63 °FOvercast.No wind70%29.99 "Hg10 mi
6:53 AM63 °FOvercast.3 mph70%29.98 "Hg10 mi
5:53 AM62 °FOvercast.No wind75%29.96 "Hg10 mi
4:53 AM63 °FOvercast.3 mph73%29.95 "Hg10 mi
3:53 AM62 °FOvercast.No wind78%29.95 "Hg10 mi
2:53 AM63 °FOvercast.No wind75%29.94 "Hg10 mi
1:53 AM62 °FOvercast.No wind78%29.94 "Hg10 mi
Weather by CustomWeather, © 2016

See weather overviewHow to use our weather pages